This is the latest recevied weather packets stored in our database for station/object SQ3MKP-13. If no packets are shown the sender has not sent any weather packets the latest 10 day(s).
| Time | Temp. | Humidity | Pressure | Rain* | Wind** | Luminosity | Snow |
|---|---|---|---|---|---|---|---|
| 1788606116 | 18.33° C | 61% | 1004.8 hPa | - | - | 224 W/m² | - |
| 1788605816 | 18.33° C | 60% | 1004.9 hPa | - | - | 234 W/m² | - |
| 1788605515 | 18.89° C | 60% | 1004.8 hPa | - | - | 93 W/m² | - |
| 1788605214 | 18.33° C | 60% | 1004.7 hPa | - | - | 291 W/m² | - |
| 1788604912 | 18.33° C | 61% | 1004.8 hPa | - | - | 244 W/m² | - |
| 1788604611 | 18.33° C | 60% | 1004.7 hPa | - | - | 136 W/m² | - |
| 1788604310 | 18.33° C | 61% | 1004.7 hPa | - | - | 201 W/m² | - |
| 1788604010 | 17.78° C | 62% | 1004.7 hPa | - | - | 219 W/m² | - |
| 1788603708 | 18.33° C | 62% | 1004.7 hPa | - | - | 73 W/m² | - |
| 1788603408 | 18.33° C | 62% | 1004.6 hPa | - | - | 170 W/m² | - |
| 1788603106 | 18.89° C | 59% | 1004.5 hPa | - | - | 248 W/m² | - |
| 1788602806 | 18.89° C | 59% | 1004.6 hPa | - | - | 253 W/m² | - |
| 1788602505 | 18.89° C | 60% | 1004.5 hPa | - | - | 605 W/m² | - |
| 1788602204 | 18.33° C | 60% | 1004.6 hPa | - | - | 626 W/m² | - |
| 1788601903 | 18.89° C | 61% | 1004.6 hPa | - | - | 466 W/m² | - |
| 1788601603 | 18.89° C | 59% | 1004.5 hPa | - | - | 636 W/m² | - |
| 1788601301 | 18.33° C | 60% | 1004.4 hPa | - | - | 567 W/m² | - |
| 1788601000 | 18.33° C | 61% | 1004.6 hPa | - | - | 634 W/m² | - |
| 1788600700 | 18.33° C | 60% | 1004.7 hPa | - | - | 222 W/m² | - |
| 1788600398 | 18.33° C | 61% | 1004.6 hPa | - | - | 229 W/m² | - |
| 1788600097 | 18.33° C | 60% | 1004.5 hPa | - | - | 210 W/m² | - |
| 1788599796 | 17.78° C | 61% | 1004.6 hPa | - | - | 568 W/m² | - |
| 1788599495 | 18.33° C | 61% | 1004.6 hPa | - | - | 543 W/m² | - |
| 1788599194 | 17.78° C | 63% | 1004.6 hPa | - | - | 535 W/m² | - |
| 1788598893 | 17.78° C | 62% | 1004.5 hPa | - | - | 546 W/m² | - |
* Rain since midnight (hover to see other rain measurements)
** Current wind speed in m/s (hover to see current wind gust speed)